[[{"header":{"parameterUnit":"m.s-1","parameterCategory":1,"la1":30.2991,"la2":30.254,"lo1":-89.0895,"lo2":-89.0444,"dy":0.0017,"dx":0.0017,"nx":28,"ny":28,"refTime":"2023-09-03T09:00:00:Z","depth":0,"parameterNumber":2,"parameterNumberName":"U-component_of_WINDS"},"data":[0,0,0,0,0,0,0,0,0,0,0,0,0,0,0,0,0,0,0,0,0,0,0,0,0,0,0,0,0,0,0,0,0,0,0,0,0,0,0,0,0,0,0,0,0,0,0,0,0,0,0,0,0,0,0,0,0,0,-5.8368,-5.8369,0,-5.8436,-5.8436,-5.8437,-5.8368,-5.8366,-5.8363,-5.8361,-5.8425,-5.8429,-5.8433,0,0,0,0,0,0,0,0,0,0,0,0,0,-5.8174,-5.8178,-5.8368,-5.8369,-5.837,-5.8435,-5.8436,-5.8437,-5.8369,-5.8366,-5.8362,-5.8359,-5.8423,-5.8428,-5.8433,0,0,0,0,0,0,0,0,0,0,0,0,0,-5.8251,-5.8179,-5.8368,-5.8344,-5.8342,-5.8435,-5.8436,-5.8437,-5.837,-5.8366,-5.8362,-5.8358,-5.8422,-5.8428,-5.8434,-5.8553,0,0,-5.8453,-5.8456,0,0,0,0,0,0,0,0,-5.8247,-5.8258,-5.8346,-5.8345,-5.8344,-5.839,-5.8391,-5.8476,-5.8371,-5.8359,-5.8361,-5.8356,-5.8416,-5.8422,-5.8444,-5.8556,-5.8558,-5.8454,-5.8457,-5.846,-5.8462,0,0,0,0,0,0,0,-5.8242,-5.8255,-5.8394,-5.8348,-5.8346,-5.8327,-5.8334,-5.8407,-5.8409,-5.836,-5.8355,-5.8364,-5.8414,-5.8438,-5.8445,-5.8559,-5.8453,-5.8459,-5.8463,-5.8465,-5.8768,-5.8772,0,0,0,0,0,0,-5.824,-5.8251,-5.8392,-5.8396,-5.8285,-5.8334,-5.8342,-5.8379,-5.8408,-5.8409,-5.8367,-5.8361,-5.8429,-5.8437,-5.8447,-5.8584,-5.846,-5.8466,-5.847,-5.8764,-5.8769,-5.8774,0,0,0,0,0,0,-5.8236,-5.8253,-5.839,-5.8323,-5.8339,-5.8342,-5.8384,-5.8382,-5.8405,-5.8414,-5.8413,-5.8391,-5.8426,-5.8438,-5.8526,-5.8585,-5.8469,-5.8474,-5.8759,-5.8765,-5.8771,-5.8861,0,0,0,0,0,0,-5.8231,-5.8252,-5.8299,-5.8324,-5.8342,-5.847,-5.8388,-5.8387,-5.8417,-5.8409,-5.8436,-5.8437,-5.8424,-5.8517,-5.8532,-5.8592,-5.8479,-5.8753,-5.8762,-5.8769,-5.8853,-5.887,-5.8885,0,0,0,0,0,-5.8224,-5.8321,-5.8301,-5.8319,-5.8401,-5.8474,-5.8484,-5.8469,-5.8422,-5.8467,-5.8473,-5.8436,-5.8578,-5.8527,-5.8543,-5.8605,-5.8749,-5.8759,-5.8769,-5.8846,-5.8867,-5.8884,0,0,0,0,0,0,-5.83,-5.8324,-5.8302,-5.8411,-5.8441,-5.8462,-5.8518,-5.8492,-5.8534,-5.8524,-5.8503,-5.8509,-5.8602,-5.8613,-5.8557,-5.872,-5.8655,-5.8669,-5.8709,-5.8728,-5.8744,-5.8737,-5.8485,0,0,0,0,0,-5.833,-5.8389,-5.8406,-5.85,-5.8517,-5.8516,-5.8547,-5.8533,-5.8562,-5.8574,-5.8585,-5.8614,-5.8664,-5.8698,-5.8745,-5.8856,-5.8858,-5.8907,-5.8923,-5.8936,-5.8946,-5.9001,-5.9021,-5.8805,-5.8805,-5.8805,0,0,-5.8392,-5.8412,-5.845,-5.8516,-5.8537,-5.8596,-5.8526,-5.8592,-5.8635,-5.8583,-5.8666,-5.8677,-5.8707,-5.8806,-5.885,-5.8818,-5.9007,-5.8948,-5.8958,-5.8961,-5.9013,-5.9034,-5.9052,-5.8812,-5.881,-5.8809,0,0,-5.8533,-5.8556,-5.8635,-5.8658,-5.8692,-5.8691,-5.871,-5.8736,-5.874,-5.8825,-5.8786,-5.8836,-5.8925,-5.8946,-5.8969,-5.9119,-5.9085,-5.9135,-5.9216,-5.927,-5.9287,-5.9302,-5.9351,-5.9369,-5.9147,-5.9147,-5.9147,0,-5.8604,-5.8693,-5.8679,-5.8747,-5.8775,-5.8734,-5.8811,-5.8835,-5.8882,-5.8901,-5.8866,-5.8974,-5.8992,-5.9094,-5.913,-5.9152,-5.917,-5.913,-5.9286,-5.9301,-5.9315,-5.9361,-5.938,-5.9152,-5.9152,-5.9151,-5.9151,0,-5.8776,-5.8839,-5.8898,-5.8946,-5.8981,-5.9055,-5.9049,-5.9087,-5.907,-5.9072,-5.9156,-5.9177,-5.9225,-5.925,-5.9234,-5.9349,-5.9327,-5.929,-5.9223,-5.9341,-5.9384,-5.9402,-5.916,-5.9158,-5.9157,-5.9155,0,0,-5.8964,-5.9004,-5.9025,-5.9045,-5.908,-5.9126,-5.9197,-5.9246,-5.9277,-5.9312,-5.9367,-5.9443,-5.9408,-5.9434,-5.9421,-5.9469,-5.9581,-5.9425,-5.9425,-5.9449,-5.9704,-5.9728,-5.9749,-5.9561,-5.9564,-5.9567,-5.9699,0,-5.9102,-5.9225,-5.9214,-5.933,-5.9384,-5.9346,-5.9407,-5.9433,-5.9437,-5.9483,-5.9487,-5.9539,-5.9492,-5.9506,-5.9553,-5.9558,-5.9631,-5.9549,-5.9608,-5.961,-5.9597,-5.9772,-5.9799,-5.9923,-5.9717,-5.972,-5.9722,0,-5.9279,-5.932,-5.9441,-5.9466,-5.9488,-5.9543,-5.9586,-5.9632,-5.966,-5.966,-5.9689,-5.9667,-5.9735,-5.9671,-5.9762,-5.9706,-5.9731,-5.9737,-5.9741,-5.9742,-5.967,-5.9773,-5.9962,-5.9979,-5.9749,-5.9747,-5.9745,0,-5.9398,-5.9484,-5.9567,-5.9586,-5.9617,-5.9656,-5.9671,-5.9696,-5.9725,-5.9763,-5.9781,-5.9827,-5.985,-5.9885,-5.9874,-5.983,-5.9966,-5.9903,-5.9964,-5.9964,-5.999,-5.9988,-6.0181,-6.0015,-6.0014,-6.0014,-6.0014,0,-5.9551,-5.9625,-5.962,-5.967,-5.9751,-5.9738,-5.9818,-5.9828,-5.9851,-5.99,-5.9871,-5.9918,-5.9904,-5.9949,-5.9942,-6.0016,-6.0029,-6.0027,-6.0023,-6.0027,-6.0026,-6.0039,-6.0028,-6.0019,-6.0018,-6.0017,-6.0016,0,-5.9695,-5.9696,-5.9782,-5.9806,-5.9813,-5.9872,-5.989,-5.9936,-5.9939,-6.0001,-6.0015,-6.0018,-6.007,-6.0065,-6.0123,-6.0118,-6.0208,-6.0197,-6.0199,-6.0194,-6.0254,-6.0246,-6.0458,-6.0483,-6.0305,-6.0307,-6.0308,0,-5.979,-5.9846,-5.9876,-5.9907,-5.9925,-5.9977,-6.0007,-5.9996,-6.0028,-6.0065,-6.0106,-6.0155,-6.0194,-6.0278,-6.0284,-6.0328,-6.0314,-6.0385,-6.032,-6.0321,-6.0309,-6.0304,-6.0307,-6.0396,-6.0398,-6.04,-6.0401,0,-5.9957,-5.9954,-5.9999,-6.0045,-6.0082,-6.0117,-6.0149,-6.0176,-6.0168,-6.0206,-6.0259,-6.0289,-6.0348,-6.0396,-6.0438,-6.045,-6.0423,-6.0423,-6.0438,-6.0439,-6.0436,-6.0434,-6.0228,-6.0416,-6.0415,-6.0414,-6.0413,-6.0412,-6.0076,-6.0123,-6.015,-6.0201,-6.0224,-6.0254,-6.0298,-6.0306,-6.0351,-6.0398,-6.039,-6.0449,-6.0474,-6.0527,-6.0544,-6.0588,-6.0562,-6.0586,-6.0591,-6.0595,-6.06,-6.0434,-6.0596,-6.0596,-6.0595,-6.0595,-6.0595,0,-6.0237,-6.0253,-6.03,-6.0345,-6.0385,-6.036,-6.0393,-6.0426,-6.0479,-6.0506,-6.0545,-6.0604,-6.0651,-6.0661,-6.0705,-6.0738,-6.0727,-6.075,-6.0744,-6.0747,-6.0624,-6.0603,-6.0758,-6.0758,-6.0758,-6.0758,-6.0758,-6.0758,-6.0325,-6.0401,-6.0402,-6.0489,-6.0504,-6.0562,-6.0583,-6.0609,-6.063,-6.0699,-6.0737,-6.0745,-6.0764,-6.0809,-6.0849,-6.0851,-6.0866,-6.0893,-6.0889,-6.0773,-6.0756,-6.074,-6.0721,-6.0898,-6.0898,-6.1008,-6.1009,-6.101]},{"header":{"parameterUnit":"m.s-1","parameterCategory":1,"la1":30.2991,"la2":30.254,"lo1":-89.0895,"lo2":-89.0444,"dy":0.0017,"dx":0.0017,"nx":28,"ny":28,"refTime":"2023-09-03T09:00:00:Z","depth":0,"parameterNumber":3,"parameterNumberName":"V-component_of_WINDS"},"data":[0,0,0,0,0,0,0,0,0,0,0,0,0,0,0,0,0,0,0,0,0,0,0,0,0,0,0,0,0,0,0,0,0,0,0,0,0,0,0,0,0,0,0,0,0,0,0,0,0,0,0,0,0,0,0,0,0,0,4.3872,4.3873,0,4.3937,4.3938,4.3939,4.3866,4.3863,4.386,4.3858,4.392,4.3924,4.3929,0,0,0,0,0,0,0,0,0,0,0,0,0,4.3679,4.3683,4.3872,4.3873,4.3873,4.3937,4.3938,4.3939,4.3866,4.3863,4.3859,4.3856,4.3919,4.3924,4.3929,0,0,0,0,0,0,0,0,0,0,0,0,0,4.3756,4.3685,4.3872,4.3845,4.3843,4.3937,4.3938,4.3939,4.3867,4.3863,4.3859,4.3855,4.3917,4.3923,4.393,4.4052,0,0,4.3949,4.3952,0,0,0,0,0,0,0,0,4.3751,4.3763,4.3848,4.3847,4.3845,4.3889,4.3893,4.3977,4.3868,4.3858,4.3858,4.3853,4.3913,4.3919,4.3941,4.4055,4.4057,4.395,4.3954,4.3956,4.3958,0,0,0,0,0,0,0,4.3746,4.376,4.3897,4.3849,4.3848,4.3828,4.3834,4.3909,4.3908,4.3858,4.3853,4.3862,4.3911,4.3935,4.3942,4.4058,4.395,4.3955,4.3959,4.3962,4.4274,4.4278,0,0,0,0,0,0,4.3745,4.3756,4.3895,4.3899,4.3787,4.3835,4.3842,4.3879,4.3907,4.3907,4.3866,4.3859,4.3926,4.3934,4.3944,4.4087,4.3956,4.3962,4.3966,4.4269,4.4275,4.428,0,0,0,0,0,0,4.3741,4.3758,4.3893,4.3826,4.3842,4.3843,4.3885,4.3883,4.3906,4.3912,4.3911,4.389,4.3923,4.3935,4.4025,4.4088,4.3965,4.3971,4.4264,4.4271,4.4277,4.4375,0,0,0,0,0,0,4.3736,4.3757,4.3804,4.3828,4.3846,4.3975,4.3889,4.3887,4.3918,4.3909,4.3935,4.3935,4.3921,4.4016,4.4032,4.4094,4.3976,4.4258,4.4267,4.4275,4.4366,4.4384,4.4399,0,0,0,0,0,4.3729,4.3828,4.3807,4.3824,4.3905,4.3979,4.3989,4.3971,4.3923,4.397,4.3974,4.3934,4.4079,4.4026,4.4043,4.4108,4.4254,4.4265,4.4274,4.4358,4.438,4.4399,0,0,0,0,0,0,4.381,4.3831,4.3807,4.3918,4.3947,4.3966,4.4025,4.3996,4.4038,4.4028,4.4003,4.401,4.4106,4.4116,4.4057,4.4227,4.4158,4.4172,4.4217,4.4238,4.4254,4.4248,4.3981,0,0,0,0,0,4.3842,4.3901,4.3915,4.4011,4.4027,4.4024,4.4055,4.404,4.4068,4.408,4.409,4.4119,4.417,4.4205,4.4253,4.4368,4.4371,4.4421,4.4438,4.4452,4.4463,4.4523,4.4545,4.4313,4.4313,4.4312,0,0,4.3906,4.3924,4.3963,4.4028,4.4049,4.4109,4.4035,4.4102,4.4146,4.409,4.4176,4.4185,4.4215,4.4318,4.4364,4.4329,4.4528,4.4465,4.4475,4.4479,4.4536,4.4558,4.4577,4.432,4.4318,4.4317,0,0,4.4053,4.4074,4.4156,4.4179,4.4212,4.4209,4.4229,4.4253,4.4257,4.4344,4.4302,4.4354,4.4444,4.4466,4.449,4.4647,4.4611,4.4663,4.4749,4.4808,4.4826,4.4842,4.4896,4.4916,4.4675,4.4675,4.4675,0,4.4128,4.4219,4.4201,4.4272,4.43,4.4254,4.4335,4.4358,4.4405,4.4425,4.4387,4.4499,4.4515,4.4622,4.4661,4.4682,4.4702,4.4659,4.4826,4.4842,4.4856,4.4907,4.4928,4.4681,4.468,4.468,4.4679,0,4.4309,4.4372,4.4434,4.4482,4.4518,4.4594,4.4585,4.4624,4.4606,4.4606,4.4694,4.4713,4.4764,4.4789,4.4771,4.4893,4.487,4.483,4.476,4.4885,4.4932,4.4952,4.469,4.4687,4.4686,4.4684,0,0,4.4508,4.4545,4.4568,4.4588,4.4622,4.467,4.4743,4.4794,4.4827,4.4861,4.492,4.4998,4.496,4.4986,4.4971,4.5023,4.5144,4.4975,4.4975,4.5004,4.5277,4.5306,4.533,4.5121,4.5125,4.5128,4.5274,0,4.4654,4.4782,4.4768,4.4889,4.4947,4.4904,4.4967,4.4994,4.4997,4.5045,4.5047,4.5102,4.5049,4.5065,4.5115,4.5119,4.5198,4.5108,4.5174,4.5177,4.5166,4.5355,4.5386,4.5523,4.5293,4.5296,4.5298,0,4.4842,4.4884,4.5011,4.5035,4.5059,4.5116,4.5161,4.5209,4.5237,4.5236,4.5266,4.5242,4.5313,4.5244,4.5341,4.528,4.5307,4.5313,4.5318,4.5321,4.5243,4.5361,4.5566,4.5586,4.5328,4.5325,4.5323,0,4.4972,4.506,4.5147,4.5167,4.5198,4.5239,4.5253,4.5278,4.5309,4.5349,4.5368,4.5415,4.544,4.5476,4.5464,4.5415,4.5564,4.5494,4.5562,4.5563,4.5594,4.5591,4.5803,4.5615,4.5614,4.5614,4.5614,0,4.5136,4.5215,4.5206,4.526,4.5346,4.533,4.5415,4.5424,4.5447,4.55,4.5466,4.5517,4.5499,4.5548,4.5539,4.562,4.5632,4.5631,4.5627,4.5633,4.5633,4.5648,4.5638,4.5619,4.5618,4.5617,4.5616,0,4.5295,4.5293,4.5385,4.5407,4.5414,4.5477,4.5495,4.5544,4.5545,4.5613,4.5628,4.5628,4.5684,4.5677,4.5739,4.5733,4.5833,4.5819,4.5823,4.5819,4.5888,4.5881,4.6115,4.6144,4.5939,4.5941,4.5942,0,4.5399,4.5459,4.5488,4.5522,4.5539,4.5594,4.5626,4.5612,4.5646,4.5684,4.5728,4.5782,4.5823,4.5914,4.5919,4.5966,4.5951,4.603,4.5958,4.5961,4.595,4.5946,4.5951,4.6044,4.6046,4.6048,4.605,0,4.5583,4.5579,4.5627,4.5675,4.5714,4.5751,4.5784,4.5813,4.5802,4.5842,4.5899,4.5932,4.5996,4.6048,4.6092,4.6105,4.6075,4.6073,4.6091,4.6096,4.6096,4.6095,4.586,4.6067,4.6065,4.6064,4.6063,4.6062,4.5716,4.5767,4.5795,4.5849,4.5873,4.5905,4.5952,4.5959,4.6007,4.6059,4.6047,4.6112,4.6138,4.6195,4.6213,4.6262,4.6232,4.6259,4.6265,4.6272,4.6279,4.609,4.627,4.6269,4.6269,4.6268,4.6268,0,4.5897,4.5913,4.5963,4.6011,4.6054,4.6024,4.6059,4.6096,4.6153,4.6181,4.6223,4.6288,4.6339,4.6349,4.6397,4.6434,4.6421,4.6447,4.6443,4.6446,4.6303,4.6282,4.6456,4.6456,4.6456,4.6456,4.6456,4.6456,4.5995,4.6079,4.6079,4.6173,4.6189,4.6252,4.6275,4.6303,4.6325,4.64,4.6443,4.6449,4.6469,4.6518,4.6563,4.6564,4.6583,4.6614,4.6609,4.6475,4.6456,4.6438,4.6418,4.6618,4.6618,4.6748,4.6749,4.675]}]]